CAPE
1035 981 944 838 749 728 712 681 658 554 612 692 693 657 635 606 634 560 392 265 296 378 360 394 484 571 585 420 328 362 371 341 308 274 262 301 266 207 0 45 0 0 0 0 0 5 43 92 147 152 174 242 221 200 169 0 0 0 158 172 176 180 162
1088 989 776 706 759 862 814 704 632 543 536 555 581 627 582 547 488 419 344 452 444 557 652 591 571 668 608 463 386 405 432 387 349 298 278 319 322 254 4 345 171 0 0 0 0 0 7 94 147 158 129 204 236 236 107 0 0 73 188 64 157 184 40
1046 969 938 832 761 804 751 675 624 576 572 547 541 514 486 501 480 412 519 618 550 770 892 742 683 684 625 604 508 466 485 451 374 364 353 357 352 274 376 303 230 128 0 0 0 0 0 24 87 120 129 144 162 191 170 21 122 195 54 120 0 0 0
1064 982 927 790 672 718 684 614 597 605 574 534 438 346 405 457 504 572 721 730 717 958 964 791 798 718 748 726 623 516 462 443 438 409 457 422 385 325 414 383 257 0 0 0 0 0 0 0 48 107 137 118 126 185 34 105 134 116 128 49 92 0 5
1064 1013 943 809 684 626 673 642 652 640 554 469 409 370 379 514 526 612 722 761 854 1100 1026 831 737 738 870 870 755 532 486 495 501 538 533 489 456 392 377 457 391 137 0 0 0 0 0 0 5 46 102 139 112 32 0 82 65 67 87 67 49 0 44
1028 1021 904 804 632 683 739 658 621 569 490 474 444 405 438 509 499 573 665 772 897 1126 1059 874 726 752 818 853 759 650 622 599 587 569 552 520 508 438 316 413 434 248 0 0 0 0 0 0 0 0 51 152 115 68 54 25 34 72 73 44 42 30 31
847 814 819 737 685 769 754 600 532 484 521 533 481 420 421 466 476 558 650 728 865 1097 1065 846 678 565 646 694 709 721 678 654 607 527 558 578 518 446 406 447 392 296 0 0 0 0 0 0 0 0 76 101 51 22 35 56 42 55 16 19 15 0 20
655 810 834 756 764 762 676 522 474 502 552 512 480 486 490 486 536 604 702 784 847 999 985 830 752 704 652 619 588 585 575 526 498 514 571 602 527 448 465 457 388 324 0 0 0 0 0 0 0 0 0 0 22 39 39 33 25 11 0 2 13 13 0
741 740 772 804 822 628 569 492 445 541 512 482 490 533 494 566 603 694 736 795 831 792 772 808 762 729 700 627 594 601 588 594 581 557 582 596 591 574 533 448 394 328 0 202 311 176 182 0 0 0 0 0 0 1 20 17 15 10 0 0 0 0 0
968 916 890 816 770 587 542 452 408 512 472 460 537 574 594 632 675 655 521 600 505 546 700 688 618 648 651 595 626 628 718 672 660 573 391 464 536 567 476 456 445 346 411 406 391 378 375 51 34 30 0 0 0 0 3 5 2 0 0 0 0 0 2
954 900 870 802 731 652 522 377 308 474 483 450 550 587 618 631 590 548 526 497 411 360 545 596 675 695 659 650 658 718 766 730 644 500 462 422 444 452 490 504 480 388 370 338 316 330 364 305 262 218 0 0 0 0 0 0 0 0 0 4 7 0 0
864 866 857 785 677 553 408 302 328 496 492 479 471 550 496 502 538 498 509 446 418 390 513 584 694 776 806 830 842 859 819 781 656 613 615 590 514 548 578 567 542 545 462 332 92 334 381 343 352 267 175 0 0 0 0 0 0 0 0 0 0 0 0
841 866 835 712 694 543 329 313 440 497 471 451 444 518 387 474 514 472 366 335 338 365 415 479 584 716 836 871 868 828 809 780 720 710 717 668 596 554 611 608 603 646 681 548 444 473 480 463 428 316 74 0 0 0 0 0 0 0 2 0 0 0 0
881 869 817 777 718 600 330 322 443 472 489 443 391 475 388 402 423 335 310 291 296 293 323 439 533 615 704 772 828 844 857 824 782 780 727 694 684 665 633 592 586 572 622 679 527 422 479 509 447 234 0 0 0 0 0 0 0 0 0 0 0 0 0
877 869 745 744 672 555 361 431 500 611 550 442 375 417 378 327 286 293 272 274 271 254 224 342 456 468 474 505 588 747 774 771 727 764 714 688 687 746 721 590 530 524 497 653 565 436 423 500 425 31 0 0 0 0 0 0 0 0 0 0 0 0 0
890 835 710 668 640 515 414 394 345 578 543 352 366 391 366 299 316 301 308 305 276 254 228 0 0 0 274 356 421 514 607 645 704 760 692 616 696 775 766 574 593 476 384 503 517 432 438 451 158 0 81 0 0 0 0 0 0 11 8 1 0 0 0
760 867 732 680 604 474 449 389 292 424 425 404 409 390 335 324 362 337 339 304 262 240 225 12 0 0 223 302 339 422 483 512 621 664 600 560 668 821 854 671 594 462 467 414 345 321 406 459 418 394 371 320 15 0 0 0 23 28 34 17 0 0 0
672 723 674 656 595 449 384 420 372 409 438 437 433 382 319 361 351 310 282 296 284 252 236 64 0 0 0 239 262 326 437 558 603 606 590 587 664 826 918 767 556 408 469 424 294 221 270 249 285 337 353 384 326 226 141 46 36 29 36 20 0 0 0
461 560 606 677 575 385 376 476 394 428 431 428 440 409 386 350 290 234 248 278 264 243 224 0 0 0 0 84 170 228 346 461 531 570 579 594 700 878 908 751 593 470 458 388 293 128 232 174 50 113 82 109 196 198 175 98 69 53 56 12 0 0 0
484 476 508 594 498 408 402 485 287 278 433 456 450 421 376 299 293 252 173 222 210 180 108 135 0 0 0 0 0 0 0 76 288 302 360 449 654 823 693 679 490 412 462 267 208 0 0 0 0 0 0 0 0 0 0 0 0 0 0 0 0 0 0
444 450 567 482 471 526 440 443 246 169 364 445 391 389 273 291 30 0 6 180 142 129 107 23 0 0 0 0 0 0 0 0 0 143 169 265 434 611 561 528 299 208 254 279 0 0 0 0 0 0 0 0 0 0 0 0 0 0 0 0 0 0 0
243 314 393 461 424 488 495 386 261 86 194 71 345 275 231 171 16 0 95 162 124 85 51 0 0 0 0 0 0 0 0 0 0 0 112 253 402 497 505 400 260 25 0 38 0 0 0 0 0 0 0 0 0 0 0 0 0 0 0 0 0 0 0
197 261 408 410 476 462 436 380 195 125 81 167 128 198 190 72 0 0 80 180 122 40 0 0 0 0 0 0 0 0 0 0 0 0 70 310 466 460 394 174 0 0 0 0 0 0 0 0 0 0 0 0 0 0 0 0 0 0 0 0 0 0 0
62 210 282 391 429 430 277 248 128 169 175 0 2 203 145 8 0 0 48 127 0 22 0 0 0 0 0 0 0 0 0 0 0 0 36 275 245 230 44 0 0 0 0 0 0 0 0 0 0 0 0 0 0 0 0 0 0 0 0 0 0 0 0
55 73 14 312 410 346 278 136 91 136 168 19 0 166 108 4 0 0 29 30 0 0 0 0 0 0 0 0 0 0 0 0 0 11 225 190 163 51 0 0 0 0 0 0 0 0 0 0 0 0 0 0 0 0 0 0 0 0 0 0 0 0 0
68 72 58 30 297 345 334 250 154 177 122 0 29 167 100 52 0 0 21 75 34 0 0 0 0 0 0 0 0 0 0 0 121 162 213 191 186 142 0 0 0 0 0 0 0 0 5 12 1 0 0 0 0 0 0 0 0 0 0 0 0 0 0
35 46 11 62 274 332 275 277 230 108 38 2 18 158 116 75 0 0 0 22 50 0 0 0 0 0 0 0 0 0 0 92 153 160 164 137 0 0 0 0 0 0 0 0 0 0 1 6 4 0 2 0 0 0 0 0 0 0 0 0 0 0 0
8 22 19 28 154 321 271 196 42 31 8 46 21 96 83 58 49 0 0 0 60 61 2 0 0 0 0 0 0 0 0 0 134 130 117 81 0 0 0 0 0 0 0 0 0 0 0 0 0 0 34 81 84 86 6 18 0 0 0 0 0 0 0
13 15 8 79 232 286 290 218 61 15 6 146 66 93 95 75 61 0 0 0 57 66 6 0 0 0 0 0 0 0 0 0 25 61 20 96 121 123 70 0 0 0 0 0 0 0 0 0 0 0 0 22 0 0 82 86 83 64 0 28 45 0 0
23 26 50 70 81 274 224 116 39 39 0 177 54 17 58 66 16 0 0 0 0 0 0 0 0 0 0 0 0 0 0 0 0 4 50 78 96 97 70 45 22 0 1 0 0 0 0 0 0 78 89 96 102 88 89 77 80 77 69 19 20 0 0
6 21 68 107 178 163 140 70 40 8 29 105 64 0 53 64 19 0 0 0 0 0 0 0 0 0 0 0 0 0 0 0 0 0 4 32 41 36 28 28 31 26 28 33 72 73 0 0 0 0 0 0 0 0 10 2 5 5 3 2 2 1 0
0 16 23 23 96 140 124 75 40 34 15 17 68 14 60 73 47 0 0 0 0 0 0 0 0 0 0 0 0 0 0 0 0 0 0 10 30 31 36 35 50 70 83 62 33 31 7 5 0 0 0 0 0 0 0 0 0 0 0 0 0 0 0
1 0 5 24 2 49 54 66 37 27 34 29 45 67 68 50 49 22 0 0 2 2 1 0 0 0 0 0 6 10 15 0 0 0 0 0 1 12 19 5 0 6 41 31 14 0 8 0 0 0 0 0 0 0 0 0 0 0 0 0 0 0 0
0 0 0 0 3 14 33 30 16 4 22 40 50 51 47 57 44 16 3 7 12 19 16 6 3 0 0 12 17 12 1 0 0 0 0 0 2 0 1 0 0 5 6 3 6 0 0 0 0 0 0 0 0 0 0 0 0 0 0 0 0 0 0
0 0 0 0 1 12 27 26 7 4 14 21 30 32 26 11 24 10 0 0 1 8 7 3 2 1 8 10 13 22 4 10 20 26 23 13 7 3 0 2 0 0 0 0 0 0 0 0 0 0 0 0 0 0 0 0 0 0 0 0 0 0 0
4 2 0 0 6 8 8 2 0 0 5 8 14 3 0 0 1 0 0 0 4 0 2 5 0 3 0 0 0 0 0 0 0 0 0 0 0 0 0 0 0 0 0 0 0 0 0 0 0 0 0 0 0 0 0 0 0 0 0 0 0 0 0
6 4 4 2 0 0 9 17 22 14 9 7 4 0 1 0 0 0 0 0 0 0 1 1 0 0 0 0 0 0 0 0 0 1 0 0 0 0 0 0 0 0 0 0 0 0 0 0 0 1 6 4 2 1 1 0 0 0 0 0 0 0 0
Wind_Speed
14 17 16 16 18 17 14 13 13 13 13 13 13 12 12 13 13 13 13 14 14 13 14 14 14 16 19 19 18 18 18 16 17 18 17 16 16 11 nan nan nan nan nan nan nan nan nan nan 14 14 14 15 15 13 13 nan nan nan 13 13 13 13 13
16 19 20 19 18 18 16 15 13 14 14 14 14 14 14 14 14 13 13 15 15 13 14 15 17 19 19 20 20 20 17 16 16 18 19 17 16 14 nan 16 17 nan nan nan nan nan nan nan 14 14 13 14 14 14 15 nan nan nan 15 nan 14 14 nan
15 19 19 18 17 17 15 14 14 15 15 15 15 16 17 17 16 15 15 15 14 14 15 16 19 21 21 21 20 19 18 18 17 19 18 18 16 16 16 15 16 16 nan nan nan nan nan nan nan 14 14 14 13 13 15 nan 14 16 nan 16 nan nan nan
13 16 17 17 17 17 15 14 15 15 16 15 16 17 19 20 19 17 16 16 15 15 15 17 18 20 21 21 21 20 19 18 18 19 19 19 18 17 16 15 16 nan nan nan nan nan nan nan nan 15 16 14 13 15 nan 15 17 17 17 nan nan nan nan
12 11 13 15 17 16 15 14 15 17 17 17 17 18 19 21 20 19 18 18 16 16 15 17 18 20 21 23 22 21 19 19 20 20 20 20 18 17 16 15 14 14 nan nan nan nan nan nan nan nan 16 16 17 nan nan nan nan nan nan nan nan nan nan
12 10 10 13 17 17 16 15 16 16 18 18 17 17 18 19 20 20 19 18 17 15 17 19 19 20 22 22 23 21 20 21 21 21 21 19 18 17 15 15 16 16 nan nan nan nan nan nan nan nan nan 17 17 nan nan nan nan nan nan nan nan nan nan
14 14 12 12 15 17 17 16 16 17 18 17 17 17 18 20 21 20 20 18 17 17 19 20 20 20 21 21 22 22 21 20 22 21 20 20 19 18 19 18 16 16 nan nan nan nan nan nan nan nan nan 18 nan nan nan nan nan nan nan nan nan nan nan
20 16 15 13 15 16 17 17 18 20 20 19 18 19 22 22 22 23 21 20 19 20 21 22 21 21 20 21 22 22 23 23 22 22 21 21 20 20 19 17 17 17 nan nan nan nan nan nan nan nan nan nan nan nan nan nan nan nan nan nan nan nan nan
23 18 17 16 15 15 17 18 19 20 21 22 21 24 23 24 24 24 23 22 22 22 22 23 22 21 21 21 22 23 23 23 23 21 21 20 19 19 18 19 19 17 nan 17 17 16 15 nan nan nan nan nan nan nan nan nan nan nan nan nan nan nan nan
25 21 17 14 13 14 17 19 21 21 22 22 23 24 26 26 25 25 26 25 24 24 24 24 23 22 22 22 22 23 23 22 22 21 22 20 19 20 20 20 18 19 18 17 16 15 16 nan nan nan nan nan nan nan nan nan nan nan nan nan nan nan nan
25 23 18 15 17 18 19 22 25 26 25 24 23 24 27 27 26 27 28 26 25 26 26 25 23 22 22 22 21 21 22 22 22 23 22 21 21 21 21 21 20 20 19 18 16 16 17 18 18 18 nan nan nan nan nan nan nan nan nan nan nan nan nan
24 24 22 22 23 24 24 24 24 25 24 20 24 26 27 28 28 28 28 28 27 27 27 25 22 22 22 22 21 22 22 22 22 22 22 22 22 22 22 21 20 21 20 18 nan 18 18 19 19 21 21 nan nan nan nan nan nan nan nan nan nan nan nan
24 26 28 28 28 29 30 28 25 25 23 23 25 25 27 27 28 29 28 28 28 27 26 23 21 22 22 21 21 22 20 21 22 22 22 23 23 22 22 22 20 21 20 20 19 18 19 19 21 21 nan nan nan nan nan nan nan nan nan nan nan nan nan
23 26 28 28 29 30 31 29 25 24 26 23 26 25 27 27 28 28 28 28 29 27 24 22 21 22 22 21 21 21 21 21 21 22 23 23 23 23 22 21 20 20 21 21 19 19 19 19 20 20 nan nan nan nan nan nan nan nan nan nan nan nan nan
24 26 25 25 26 26 27 26 25 27 24 24 26 26 28 27 27 27 27 28 29 28 25 23 23 23 23 22 21 21 21 21 21 22 23 23 23 23 23 21 20 21 22 24 21 20 19 19 20 nan nan nan nan nan nan nan nan nan nan nan nan nan nan
22 21 17 16 20 22 24 26 25 24 24 25 24 26 27 28 27 26 26 27 28 27 25 nan nan nan 22 22 22 21 21 21 21 22 22 22 23 24 23 21 20 22 22 24 22 22 21 20 19 nan nan nan nan nan nan nan nan nan nan nan nan nan nan
16 12 15 18 18 21 23 23 22 23 26 25 24 25 27 27 26 25 26 27 26 25 24 nan nan nan 23 23 23 22 21 21 21 21 21 22 23 23 22 20 20 21 22 23 21 21 19 19 16 15 16 16 nan nan nan nan nan nan nan nan nan nan nan
14 15 20 23 20 21 23 23 24 25 27 25 25 26 26 26 26 26 28 28 27 25 24 nan nan nan nan 23 23 23 22 20 20 21 21 23 23 22 22 19 21 22 22 22 20 20 17 17 16 16 15 16 16 17 19 nan nan nan nan nan nan nan nan
18 19 23 26 25 27 28 26 25 28 29 27 26 26 26 25 27 28 29 30 29 27 27 nan nan nan nan nan 24 22 21 20 20 22 23 23 22 22 22 22 22 23 24 23 19 19 19 18 nan 16 nan 17 19 20 19 nan nan nan nan nan nan nan nan
19 19 19 24 29 31 28 28 26 27 30 28 27 27 26 25 26 28 30 32 31 31 30 28 nan nan nan nan nan nan nan nan 22 23 24 24 26 28 29 30 30 24 25 22 21 nan nan nan nan nan nan nan nan nan nan nan nan nan nan nan nan nan nan
17 20 23 26 27 27 27 30 31 32 29 27 27 26 25 25 nan nan nan 33 33 32 32 nan nan nan nan nan nan nan nan nan nan 25 26 26 24 24 27 27 28 24 23 19 nan nan nan nan nan nan nan nan nan nan nan nan nan nan nan nan nan nan nan
19 20 23 25 26 26 26 30 35 nan 34 nan 26 26 28 29 nan nan nan 34 33 nan nan nan nan nan nan nan nan nan nan nan nan nan 27 26 25 27 28 26 26 nan nan nan nan nan nan nan nan nan nan nan nan nan nan nan nan nan nan nan nan nan nan
17 23 22 22 24 25 28 30 32 34 nan 30 27 28 27 nan nan nan nan 36 33 nan nan nan nan nan nan nan nan nan nan nan nan nan nan 29 28 28 28 27 nan nan nan nan nan nan nan nan nan nan nan nan nan nan nan nan nan nan nan nan nan nan nan
nan 21 22 23 25 26 27 26 28 32 31 nan nan 26 25 nan nan nan nan 33 nan nan nan nan nan nan nan nan nan nan nan nan nan nan nan 30 29 28 nan nan nan nan nan nan nan nan nan nan nan nan nan nan nan nan nan nan nan nan nan nan nan nan nan
nan nan nan 25 26 27 27 25 nan 31 30 nan nan 29 26 nan nan nan nan nan nan nan nan nan nan nan nan nan nan nan nan nan nan nan 29 31 30 nan nan nan nan nan nan nan nan nan nan nan nan nan nan nan nan nan nan nan nan nan nan nan nan nan nan
nan nan nan nan 27 28 26 25 29 32 29 nan nan 33 28 nan nan nan nan nan nan nan nan nan nan nan nan nan nan nan nan nan 30 29 30 30 30 29 nan nan nan nan nan nan nan nan nan nan nan nan nan nan nan nan nan nan nan nan nan nan nan nan nan
nan nan nan nan 27 27 26 27 32 34 nan nan nan 39 32 nan nan nan nan nan nan nan nan nan nan nan nan nan nan nan nan nan 31 33 32 31 nan nan nan nan nan nan nan nan nan nan nan nan nan nan nan nan nan nan nan nan nan nan nan nan nan nan nan
nan nan nan nan 27 29 30 32 nan nan nan nan nan nan nan nan nan nan nan nan nan nan nan nan nan nan nan nan nan nan nan nan 33 34 35 nan nan nan nan nan nan nan nan nan nan nan nan nan nan nan nan nan nan nan nan nan nan nan nan nan nan nan nan
nan nan nan nan 27 30 30 32 nan nan nan 37 nan nan nan nan nan nan nan nan nan nan nan nan nan nan nan nan nan nan nan nan nan nan nan nan 36 34 nan nan nan nan nan nan nan nan nan nan nan nan nan nan nan nan nan nan nan nan nan nan nan nan nan
nan nan nan nan nan 31 31 33 nan nan nan 37 nan nan nan nan nan nan nan nan nan nan nan nan nan nan nan nan nan nan nan nan nan nan nan nan nan nan nan nan nan nan nan nan nan nan nan nan nan nan nan nan 38 nan nan nan nan nan nan nan nan nan nan
nan nan nan 30 30 33 34 nan nan nan nan 39 nan nan nan nan nan nan nan nan nan nan nan nan nan nan nan nan nan nan nan nan nan nan nan nan nan nan nan nan nan nan nan nan nan nan nan nan nan nan nan nan nan nan nan nan nan nan nan nan nan nan nan
nan nan nan nan nan 34 36 nan nan nan nan nan nan nan nan nan nan nan nan nan nan nan nan nan nan nan nan nan nan nan nan nan nan nan nan nan nan nan nan nan nan nan nan nan nan nan nan nan nan nan nan nan nan nan nan nan nan nan nan nan nan nan nan
nan nan nan nan nan nan nan nan nan nan nan nan nan nan nan nan nan nan nan nan nan nan nan nan nan nan nan nan nan nan nan nan nan nan nan nan nan nan nan nan nan nan nan nan nan nan nan nan nan nan nan nan nan nan nan nan nan nan nan nan nan nan nan
nan nan nan nan nan nan nan nan nan nan nan nan nan nan nan nan nan nan nan nan nan nan nan nan nan nan nan nan nan nan nan nan nan nan nan nan nan nan nan nan nan nan nan nan nan nan nan nan nan nan nan nan nan nan nan nan nan nan nan nan nan nan nan
nan nan nan nan nan nan nan nan nan nan nan nan nan nan nan nan nan nan nan nan nan nan nan nan nan nan nan nan nan nan nan nan nan nan nan nan nan nan nan nan nan nan nan nan nan nan nan nan nan nan nan nan nan nan nan nan nan nan nan nan nan nan nan
nan nan nan nan nan nan nan nan nan nan nan nan nan nan nan nan nan nan nan nan nan nan nan nan nan nan nan nan nan nan nan nan nan nan nan nan nan nan nan nan nan nan nan nan nan nan nan nan nan nan nan nan nan nan nan nan nan nan nan nan nan nan nan
nan nan nan nan nan nan nan nan nan nan nan nan nan nan nan nan nan nan nan nan nan nan nan nan nan nan nan nan nan nan nan nan nan nan nan nan nan nan nan nan nan nan nan nan nan nan nan nan nan nan nan nan nan nan nan nan nan nan nan nan nan nan nan
Wind_Direction
232 228 227 220 219 228 230 225 230 231 234 241 245 239 230 219 213 210 211 216 223 228 233 243 249 247 249 247 254 255 254 259 267 272 272 271 280 265 nan nan nan nan nan nan nan nan nan nan 273 260 254 257 260 255 250 nan nan nan 255 244 241 234 234
238 231 228 225 220 220 223 220 225 229 233 234 233 230 219 212 211 214 220 222 225 228 234 240 242 247 253 254 254 254 257 259 263 264 271 275 271 270 nan 245 251 nan nan nan nan nan nan nan 262 272 265 253 247 250 245 nan nan nan 251 nan 243 240 nan
240 237 233 226 222 224 226 223 223 227 230 228 222 219 217 216 219 224 228 228 226 231 234 240 244 249 250 254 260 260 258 262 259 264 271 268 269 261 258 263 252 250 nan nan nan nan nan nan nan 281 266 267 262 251 247 nan 248 247 nan 250 nan nan nan
235 241 238 232 230 232 229 228 228 225 226 223 220 218 221 225 226 228 229 227 227 231 238 243 248 252 253 256 258 257 259 263 262 264 259 258 264 260 258 262 265 nan nan nan nan nan nan nan nan 266 259 259 256 253 nan 241 244 248 250 nan nan nan nan
231 236 249 249 245 243 237 233 227 225 219 219 219 219 223 228 230 227 227 228 230 232 240 245 248 251 251 252 255 258 260 260 260 262 258 259 259 257 256 257 260 259 nan nan nan nan nan nan nan nan 267 251 246 nan nan nan nan nan nan nan nan nan nan
229 231 242 249 249 247 242 234 230 225 223 221 217 220 219 229 230 232 234 236 234 234 239 244 245 248 250 252 255 256 257 261 263 261 258 256 260 261 260 252 256 257 nan nan nan nan nan nan nan nan nan 248 249 nan nan nan nan nan nan nan nan nan nan
246 232 233 250 252 246 242 237 235 233 233 228 227 223 225 227 230 235 239 239 238 239 243 245 245 246 249 253 254 257 258 259 258 260 258 255 256 255 255 259 255 260 nan nan nan nan nan nan nan nan nan 244 nan nan nan nan nan nan nan nan nan nan nan
258 238 236 244 250 247 240 239 237 239 241 238 238 235 235 235 236 237 236 238 238 242 244 245 246 247 249 250 253 255 255 256 257 257 254 258 261 260 258 263 263 260 nan nan nan nan nan nan nan nan nan nan nan nan nan nan nan nan nan nan nan nan nan
264 250 243 237 234 239 245 246 245 245 245 246 243 246 243 245 244 241 238 239 242 246 247 249 249 249 249 252 251 254 257 251 257 255 255 258 261 265 267 262 263 264 nan 266 267 269 270 nan nan nan nan nan nan nan nan nan nan nan nan nan nan nan nan
270 265 255 244 234 236 246 250 250 248 246 246 253 248 251 246 247 246 244 243 245 247 247 248 249 248 249 249 252 256 258 255 256 258 257 260 260 263 264 270 272 271 270 268 266 269 269 nan nan nan nan nan nan nan nan nan nan nan nan nan nan nan nan
269 263 253 245 240 248 250 253 252 252 248 240 235 249 253 251 246 247 248 246 244 244 247 247 244 245 247 247 250 254 255 258 257 255 260 262 262 263 263 267 268 272 271 274 274 269 268 267 264 260 nan nan nan nan nan nan nan nan nan nan nan nan nan
261 257 249 243 247 255 259 259 261 259 255 256 250 250 252 251 248 246 247 246 243 244 245 246 241 243 244 248 248 251 251 257 260 260 259 262 262 264 266 270 269 272 273 272 nan 266 263 265 264 261 259 nan nan nan nan nan nan nan nan nan nan nan nan
252 251 248 246 246 251 256 260 262 261 260 252 248 249 252 251 250 248 245 246 244 244 246 244 243 242 244 248 251 254 254 257 259 260 258 257 262 264 267 270 272 273 270 267 267 267 268 265 265 266 nan nan nan nan nan nan nan nan nan nan nan nan nan
246 245 246 249 250 250 253 258 263 262 256 252 250 248 252 253 250 247 246 245 248 249 247 246 244 245 246 246 250 255 258 261 263 259 258 258 259 264 268 269 270 266 266 267 268 269 269 270 266 268 nan nan nan nan nan nan nan nan nan nan nan nan nan
240 232 231 236 247 251 256 262 261 261 260 252 252 253 256 254 251 248 244 243 247 251 247 246 243 246 248 249 252 255 263 265 264 262 260 261 261 263 265 268 265 260 261 264 265 268 270 270 266 nan nan nan nan nan nan nan nan nan nan nan nan nan nan
238 239 244 243 248 253 257 259 261 263 263 257 254 259 259 259 257 249 241 243 248 251 250 nan nan nan 250 254 258 258 263 267 268 266 263 264 265 263 264 265 263 260 262 262 263 265 263 262 265 nan nan nan nan nan nan nan nan nan nan nan nan nan nan
245 239 246 248 251 249 247 251 260 264 265 262 260 254 258 262 260 249 240 242 249 253 253 nan nan nan 253 254 258 262 263 265 268 267 267 265 264 265 265 262 259 262 264 267 266 264 268 270 267 267 266 268 nan nan nan nan nan nan nan nan nan nan nan
248 239 233 234 246 256 251 252 258 266 266 264 259 252 251 258 257 249 244 244 248 255 260 nan nan nan nan 252 258 262 265 267 267 265 263 262 264 264 262 261 258 262 266 269 266 268 265 265 265 268 277 278 277 274 270 nan nan nan nan nan nan nan nan
251 240 236 234 234 241 244 242 249 261 264 267 260 254 254 250 253 250 246 245 249 253 258 nan nan nan nan nan 254 259 265 268 266 262 259 259 260 258 257 253 258 266 267 269 266 267 265 268 nan 268 nan 282 278 273 276 nan nan nan nan nan nan nan nan
259 265 261 254 252 258 263 266 255 248 257 263 261 257 254 254 249 248 244 247 248 250 251 251 nan nan nan nan nan nan nan nan 261 258 257 257 254 252 253 253 246 242 258 260 265 nan nan nan nan nan nan nan nan nan nan nan nan nan nan nan nan nan nan
265 260 256 257 260 265 269 270 267 249 248 259 261 259 254 249 nan nan nan 245 246 246 249 nan nan nan nan nan nan nan nan nan nan 255 255 257 259 259 258 259 266 265 249 244 nan nan nan nan nan nan nan nan nan nan nan nan nan nan nan nan nan nan nan
263 261 256 260 266 269 265 265 260 nan 231 nan 258 256 249 247 nan nan nan 242 244 nan nan nan nan nan nan nan nan nan nan nan nan nan 255 253 247 248 253 254 254 nan nan nan nan nan nan nan nan nan nan nan nan nan nan nan nan nan nan nan nan nan nan
268 264 263 264 272 271 267 262 256 246 nan 225 230 252 251 nan nan nan nan 240 239 nan nan nan nan nan nan nan nan nan nan nan nan nan nan 253 247 247 249 251 nan nan nan nan nan nan nan nan nan nan nan nan nan nan nan nan nan nan nan nan nan nan nan
nan 277 272 266 270 267 267 264 254 247 246 nan nan 251 253 nan nan nan nan 246 nan nan nan nan nan nan nan nan nan nan nan nan nan nan nan 257 253 252 nan nan nan nan nan nan nan nan nan nan nan nan nan nan nan nan nan nan nan nan nan nan nan nan nan
nan nan nan 267 271 267 264 257 nan 241 245 nan nan 241 250 nan nan nan nan nan nan nan nan nan nan nan nan nan nan nan nan nan nan nan 257 256 254 nan nan nan nan nan nan nan nan nan nan nan nan nan nan nan nan nan nan nan nan nan nan nan nan nan nan
nan nan nan nan 266 267 263 258 247 242 242 nan nan 241 253 nan nan nan nan nan nan nan nan nan nan nan nan nan nan nan nan nan 255 255 258 260 259 257 nan nan nan nan nan nan nan nan nan nan nan nan nan nan nan nan nan nan nan nan nan nan nan nan nan
nan nan nan nan 262 263 262 254 242 238 nan nan nan 240 249 nan nan nan nan nan nan nan nan nan nan nan nan nan nan nan nan nan 248 249 251 253 nan nan nan nan nan nan nan nan nan nan nan nan nan nan nan nan nan nan nan nan nan nan nan nan nan nan nan
nan nan nan nan 253 256 257 250 nan nan nan nan nan nan nan nan nan nan nan nan nan nan nan nan nan nan nan nan nan nan nan nan 248 247 247 nan nan nan nan nan nan nan nan nan nan nan nan nan nan nan nan nan nan nan nan nan nan nan nan nan nan nan nan
nan nan nan nan 252 254 253 249 nan nan nan 238 nan nan nan nan nan nan nan nan nan nan nan nan nan nan nan nan nan nan nan nan nan nan nan nan 247 247 nan nan nan nan nan nan nan nan nan nan nan nan nan nan nan nan nan nan nan nan nan nan nan nan nan
nan nan nan nan nan 249 248 247 nan nan nan 236 nan nan nan nan nan nan nan nan nan nan nan nan nan nan nan nan nan nan nan nan nan nan nan nan nan nan nan nan nan nan nan nan nan nan nan nan nan nan nan nan 282 nan nan nan nan nan nan nan nan nan nan
nan nan nan 217 232 241 243 nan nan nan nan 240 nan nan nan nan nan nan nan nan nan nan nan nan nan nan nan nan nan nan nan nan nan nan nan nan nan nan nan nan nan nan nan nan nan nan nan nan nan nan nan nan nan nan nan nan nan nan nan nan nan nan nan
nan nan nan nan nan 230 237 nan nan nan nan nan nan nan nan nan nan nan nan nan nan nan nan nan nan nan nan nan nan nan nan nan nan nan nan nan nan nan nan nan nan nan nan nan nan nan nan nan nan nan nan nan nan nan nan nan nan nan nan nan nan nan nan
nan nan nan nan nan nan nan nan nan nan nan nan nan nan nan nan nan nan nan nan nan nan nan nan nan nan nan nan nan nan nan nan nan nan nan nan nan nan nan nan nan nan nan nan nan nan nan nan nan nan nan nan nan nan nan nan nan nan nan nan nan nan nan
nan nan nan nan nan nan nan nan nan nan nan nan nan nan nan nan nan nan nan nan nan nan nan nan nan nan nan nan nan nan nan nan nan nan nan nan nan nan nan nan nan nan nan nan nan nan nan nan nan nan nan nan nan nan nan nan nan nan nan nan nan nan nan
nan nan nan nan nan nan nan nan nan nan nan nan nan nan nan nan nan nan nan nan nan nan nan nan nan nan nan nan nan nan nan nan nan nan nan nan nan nan nan nan nan nan nan nan nan nan nan nan nan nan nan nan nan nan nan nan nan nan nan nan nan nan nan
nan nan nan nan nan nan nan nan nan nan nan nan nan nan nan nan nan nan nan nan nan nan nan nan nan nan nan nan nan nan nan nan nan nan nan nan nan nan nan nan nan nan nan nan nan nan nan nan nan nan nan nan nan nan nan nan nan nan nan nan nan nan nan
nan nan nan nan nan nan nan nan nan nan nan nan nan nan nan nan nan nan nan nan nan nan nan nan nan nan nan nan nan nan nan nan nan nan nan nan nan nan nan nan nan nan nan nan nan nan nan nan nan nan nan nan nan nan nan nan nan nan nan nan nan nan nan